Back to catalog

NOAA 16 DEB

AlivePO
NORAD 41064·DEBRIS·🇺🇸 United States

Launched Sep 21, 2000 from Vandenberg Space Force Base

Loading…

Next Passes (next 24 hours)

TLE

FreshSource: Space-Track

Epoch: Sep 14, 2026, 07:47 UTC

1 41064U 00055X   26257.32453875  .00004761  00000-0  13159-2 0  9993
2 41064  98.8579  39.0191 0010316 318.6876  41.3533 14.47175433560881

Track NOAA 16 DEB in real time with AllMySat

Download on the App Store